Location: Fairview
(40.8165°N, 122.7667°W)
Time: 10:02:37
(UTC+00:00)

USA 234 - Pass Details

Date: 13 June 2024
Orbit: 1100 x 1107 km, 123.0° (Epoch: 08 July)

Event Time Altitude Azimuth Distance (km) Brightness Sun altitude
Rises 11:58:50 0° 125° (SE) 3,915 6.4 -7.0°
Reaches altitude 10° 12:01:18 10° 124° (SE) 2,959 5.8 -6.6°
Maximum altitude 12:07:50 78° 40° (NE) 1,131 3.5 -5.7°
Drops below altitude 10° 12:14:23 10° 315° (NW) 2,965 5.5 -4.7°
Sets 12:16:52 0° 314° (NW) 3,925 6.1 -4.3°
